Tracking 26218 objects as of 26-Sep-2022
HD Live streaming from Space Station
objects crossing your sky now

USA 325

Track USA 325 now!


NORAD ID: 51281
Int'l Code: 2022-006B
Perigee: 35,795.0 km
Apogee: 35,821.1 km
Inclination: 0.2 °
Period: 1,436.8 minutes
Semi major axis: 42179 km
RCS: Unknown
Launch date: January 21, 2022
Source: United States (US)
Launch site: AIR FORCE EASTERN TEST RANGE (AFETR)
aabbcc
Your satellite tracking list
Your tracking list is empty




NASA's NSSDC Master Catalog

Two Line Element Set (TLE):
1 51281U 22006B   22263.35543645 -.00000091  00000-0  00000+0 0  9997
2 51281   0.1820  95.8799 0003095 105.5556 276.4183  1.00220849  2415
Source of the keplerian elements: McCants